Location: Musselshell
(46.5176°N, 108.0911°W)
Time: 00:06:58
(UTC+00:00)

O/OREOS (USA 219) - Visible Passes

Search period start: 28 June 2022 00:00
Search period end: 08 July 2022 00:00
Orbit: 621 x 646 km, 72.0° (Epoch: 22 May)

Date Brightness Start Highest point End Pass type
(mag) Time Alt. Az. Time Alt. Az. Time Alt. Az.
28 Jun ? 07:48:25 10° NNW 07:52:57 53° ENE 07:55:38 23° SE visible
28 Jun ? 09:28:45 10° WNW 09:31:57 19° W 09:33:02 17° WSW visible
29 Jun ? 06:32:02 10° N 06:35:04 17° NE 06:38:07 10° E visible
29 Jun ? 08:10:26 10° NNW 08:15:02 75° WSW 08:16:42 39° S visible
30 Jun ? 06:53:26 10° N 06:57:31 30° NE 07:00:25 16° ESE visible
30 Jun ? 08:32:47 10° NW 08:36:58 35° WSW 08:37:50 32° SW visible
01 Jul ? 05:38:22 10° NNE 05:39:21 11° NE 05:40:19 10° NE visible
01 Jul ? 07:15:12 10° NNW 07:19:47 59° ENE 07:21:38 33° SE visible
01 Jul ? 08:55:45 10° WNW 08:58:42 17° W 08:59:02 17° WSW visible
02 Jul ? 05:58:43 10° N 06:01:57 18° NE 06:05:11 10° E visible
02 Jul ? 07:37:15 10° NNW 07:41:51 67° WSW 07:42:53 50° S visible
03 Jul ? 06:20:11 10° N 06:24:23 33° NE 06:26:46 20° ESE visible
03 Jul ? 07:59:40 10° NW 08:03:44 31° WSW 08:04:11 31° WSW visible
04 Jul ? 05:04:41 10° NNE 05:06:14 11° NE 05:07:48 10° ENE visible
04 Jul ? 06:42:00 10° NNW 06:46:37 65° ENE 06:48:07 40° SE visible
04 Jul ? 08:22:48 10° WNW 08:25:28 15° W 08:25:32 15° W visible
05 Jul ? 05:25:25 10° N 05:28:50 20° NE 05:32:04 11° E visible
05 Jul ? 07:04:06 10° NNW 07:08:39 60° WSW 07:09:30 50° SSW visible
06 Jul ? 05:46:57 10° N 05:51:13 36° ENE 05:53:30 22° ESE visible
06 Jul ? 07:26:34 10° NW 07:30:31 28° WSW 07:30:55 28° WSW visible
07 Jul ? 04:31:11 10° NNE 04:33:08 12° NE 04:35:06 10° ENE visible
07 Jul ? 06:08:48 10° NNW 06:13:26 72° ENE 06:14:57 41° SE visible
07 Jul ? 07:49:54 10° WNW 07:52:13 14° W 07:52:23 14° W visible
